Simultaneous Nadir Overpasses (SNOs) Predictions

Prediction of SNOs between FY3D and AQUA Satellite Orbit:

Table of predicted SNOs for the next 14.0 days since TLE Epoch: 10/28/2022
Index Date (FY3D) Time (FY3D) Lat,Lon (FY3D) SZA (FY3D ) Date (AQUA) Time (AQUA) Lat,Lon (AQUA) SZA (AQUA ) Distance(km) Time Diff (sec)
1 10/28/2022 22:22:00 -77.66, 8.25 88.79 10/28/2022 22:23:05 -77.65, 8.34 88.82 2.31 65
2 10/28/2022 23:12:27 76.83, 179.25 90.26 10/28/2022 23:12:14 76.84, 179.19 90.27 1.83 13
3 10/31/2022 13:48:47 77.06, -40.72 91.37 10/31/2022 13:49:00 77.07, -40.81 91.38 2.34 13
4 10/31/2022 14:39:18 -76.47, 128.97 89.29 10/31/2022 14:38:12 -76.46, 129.02 89.29 1.54 66
5 11/03/2022 04:25:09 77.42, 98.67 92.61 11/03/2022 04:25:47 77.42, 98.67 92.60 0.13 38
6 11/03/2022 05:15:35 -76.61, -90.63 88.30 11/03/2022 05:14:55 -76.62, -90.69 88.28 1.84 40
7 11/05/2022 19:01:27 77.56,-121.04 93.58 11/05/2022 19:02:30 77.56,-121.08 93.57 0.86 63
8 11/05/2022 19:51:55 -76.85, 49.38 87.23 11/05/2022 19:51:40 -76.86, 49.30 87.22 2.37 15
9 11/08/2022 10:28:18 -77.22,-171.22 86.04 11/08/2022 10:28:27 -77.23,-171.21 86.04 0.22 9
10 11/08/2022 11:18:47 76.45, -0.77 93.11 11/08/2022 11:17:37 76.45, -0.77 93.12 0.16 70
11 11/11/2022 01:04:36 -77.38, -30.95 85.12 11/11/2022 01:05:09 -77.38, -30.98 85.12 1.01 33



Historial Predications of SNOs between FY3D and AQUA
